Time,TemperatureF,DewpointF,PressureIn,WindDirection,WindDirectionDegrees,WindSpeedMPH,WindSpeedGustMPH,Humidity,HourlyPrecipIn,Conditions,Clouds,dailyrainin,SoftwareType,DateUTC
2013-04-01 00:03:00,47.7,38.8,24.09,NW,320,0.0,0.0,71,0.00,,,0.00,Wunderground v.1.15,2013-04-01 05:03:00,
2013-04-01 00:08:00,47.5,38.6,24.26,NW,320,0.0,0.0,71,0.00,,,0.00,Wunderground v.1.15,2013-04-01 05:08:00,
2013-04-01 00:14:00,47.3,38.7,24.26,NW,320,0.0,0.0,72,0.00,,,0.00,Wunderground v.1.15,2013-04-01 05:14:00,
2013-04-01 00:20:00,47.1,38.5,24.22,NW,319,0.0,0.0,72,0.00,,,0.00,Wunderground v.1.15,2013-04-01 05:20:00,
2013-04-01 00:25:00,46.9,38.7,24.22,NW,320,0.0,0.0,73,0.00,,,0.00,Wunderground v.1.15,2013-04-01 05:25:00,
2013-04-01 00:32:00,46.6,38.4,24.22,NW,320,0.0,0.0,73,0.00,,,0.00,Wunderground v.1.15,2013-04-01 05:32:00,
2013-04-01 00:38:00,46.4,38.2,25.01,NW,319,0.0,0.0,73,0.00,,,0.00,Wunderground v.1.15,2013-04-01 05:38:00,
2013-04-01 00:44:00,46.3,38.5,24.99,NW,319,0.0,0.0,74,0.00,,,0.00,Wunderground v.1.15,2013-04-01 05:44:00,
2013-04-01 00:49:00,46.1,38.3,25.01,NW,319,0.0,0.0,74,0.00,,,0.00,Wunderground v.1.15,2013-04-01 05:49:00,
2013-04-01 00:54:00,45.9,38.4,25.03,NW,319,0.0,0.0,75,0.00,,,0.00,Wunderground v.1.15,2013-04-01 05:54:00,
2013-04-01 01:00:00,45.7,38.2,25.03,NW,319,0.0,0.0,75,0.00,,,0.00,Wunderground v.1.15,2013-04-01 06:00:00,
2013-04-01 01:06:00,45.6,38.1,25.59,NW,319,0.0,0.0,75,0.00,,,0.00,Wunderground v.1.15,2013-04-01 06:06:00,
2013-04-01 01:12:00,45.4,38.3,25.59,NW,319,0.0,0.0,76,0.00,,,0.00,Wunderground v.1.15,2013-04-01 06:12:00,
2013-04-01 01:17:00,45.2,38.1,26.69,NW,320,0.0,0.0,76,0.00,,,0.00,Wunderground v.1.15,2013-04-01 06:17:00,
2013-04-01 01:23:00,45.0,37.9,26.69,NW,319,0.0,0.0,76,0.00,,,0.00,Wunderground v.1.15,2013-04-01 06:23:00,
2013-04-01 01:28:00,44.8,37.7,26.69,NW,320,0.0,0.0,76,0.00,,,0.00,Wunderground v.1.15,2013-04-01 06:28:00,
2013-04-01 01:33:00,44.6,37.5,24.91,NW,320,0.0,0.0,76,0.00,,,0.00,Wunderground v.1.15,2013-04-01 06:33:00,
2013-04-01 01:39:00,44.4,37.6,24.91,NW,320,0.0,0.0,77,0.00,,,0.00,Wunderground v.1.15,2013-04-01 06:39:00,
2013-04-01 01:45:00,44.2,37.4,24.91,NW,320,0.0,0.0,77,0.00,,,0.00,Wunderground v.1.15,2013-04-01 06:45:00,
2013-04-01 01:51:00,44.1,37.3,24.91,NW,320,0.0,0.0,77,0.00,,,0.00,Wunderground v.1.15,2013-04-01 06:51:00,
2013-04-01 01:57:00,43.8,37.4,24.91,NW,319,0.0,0.0,78,0.00,,,0.00,Wunderground v.1.15,2013-04-01 06:57:00,
2013-04-01 02:02:00,43.6,37.2,24.91,NW,319,0.0,0.0,78,0.00,,,0.00,Wunderground v.1.15,2013-04-01 07:02:00,
2013-04-01 02:07:00,43.5,37.1,24.91,NW,320,0.0,0.0,78,0.00,,,0.00,Wunderground v.1.15,2013-04-01 07:07:00,
2013-04-01 02:12:00,43.3,36.9,24.91,NW,319,0.0,0.0,78,0.00,,,0.00,Wunderground v.1.15,2013-04-01 07:12:00,
2013-04-01 02:17:00,43.2,36.8,24.91,NW,320,0.0,0.0,78,0.00,,,0.00,Wunderground v.1.15,2013-04-01 07:17:00,
2013-04-01 02:23:00,43.0,36.9,24.91,NW,320,0.0,0.0,79,0.00,,,0.00,Wunderground v.1.15,2013-04-01 07:23:00,
2013-04-01 02:28:00,42.9,36.8,25.51,NW,319,0.0,0.0,79,0.00,,,0.00,Wunderground v.1.15,2013-04-01 07:28:00,
2013-04-01 02:33:00,42.8,36.7,25.51,NW,319,0.0,0.0,79,0.00,,,0.00,Wunderground v.1.15,2013-04-01 07:33:00,
2013-04-01 02:38:00,42.7,37.0,25.51,NW,320,0.0,0.0,80,0.00,,,0.00,Wunderground v.1.15,2013-04-01 07:38:00,
2013-04-01 02:43:00,42.6,36.9,25.51,NW,320,0.0,0.0,80,0.00,,,0.00,Wunderground v.1.15,2013-04-01 07:43:00,
2013-04-01 02:48:00,42.5,37.1,25.51,NW,319,0.0,0.0,81,0.00,,,0.00,Wunderground v.1.15,2013-04-01 07:48:00,
2013-04-01 02:53:00,42.4,37.0,25.51,NW,320,0.0,0.0,81,0.00,,,0.00,Wunderground v.1.15,2013-04-01 07:53:00,
2013-04-01 02:58:00,42.3,36.9,25.51,NW,320,0.0,0.0,81,0.00,,,0.00,Wunderground v.1.15,2013-04-01 07:58:00,
2013-04-01 03:03:00,42.2,37.1,25.51,NW,320,0.0,0.0,82,0.00,,,0.00,Wunderground v.1.15,2013-04-01 08:03:00,
2013-04-01 03:08:00,42.2,37.1,25.51,NW,320,0.0,0.0,82,0.00,,,0.00,Wunderground v.1.15,2013-04-01 08:08:00,
2013-04-01 03:13:00,42.1,37.0,25.51,NW,319,0.0,0.0,82,0.00,,,0.00,Wunderground v.1.15,2013-04-01 08:13:00,
2013-04-01 03:18:00,42.0,36.9,25.51,NW,319,0.0,0.0,82,0.00,,,0.00,Wunderground v.1.15,2013-04-01 08:18:00,
2013-04-01 03:23:00,41.9,36.8,25.51,NW,320,0.0,0.0,82,0.00,,,0.00,Wunderground v.1.15,2013-04-01 08:23:00,
2013-04-01 03:28:00,41.7,36.6,25.51,NW,320,0.0,0.0,82,0.00,,,0.00,Wunderground v.1.15,2013-04-01 08:28:00,
2013-04-01 03:33:00,41.6,36.5,25.51,NW,319,0.0,0.0,82,0.00,,,0.00,Wunderground v.1.15,2013-04-01 08:33:00,
2013-04-01 03:38:00,41.5,36.4,25.51,NW,320,0.0,0.0,82,0.00,,,0.00,Wunderground v.1.15,2013-04-01 08:38:00,
2013-04-01 03:43:00,41.4,36.3,25.51,NW,320,0.0,0.0,82,0.00,,,0.00,Wunderground v.1.15,2013-04-01 08:43:00,
2013-04-01 03:48:00,41.3,36.2,25.51,NW,319,0.0,0.0,82,0.00,,,0.00,Wunderground v.1.15,2013-04-01 08:48:00,
2013-04-01 03:53:00,41.1,36.0,25.51,NW,319,0.0,0.0,82,0.00,,,0.00,Wunderground v.1.15,2013-04-01 08:53:00,
2013-04-01 03:58:00,41.1,36.0,25.51,NW,320,0.0,0.0,82,0.00,,,0.00,Wunderground v.1.15,2013-04-01 08:58:00,
2013-04-01 04:03:00,40.9,36.1,25.51,NW,319,0.0,0.0,83,0.00,,,0.00,Wunderground v.1.15,2013-04-01 09:03:00,
2013-04-01 04:08:00,40.7,35.9,25.51,NW,319,0.0,0.0,83,0.00,,,0.00,Wunderground v.1.15,2013-04-01 09:08:00,
2013-04-01 04:13:00,40.6,35.5,25.51,NW,320,0.0,0.0,82,0.00,,,0.00,Wunderground v.1.15,2013-04-01 09:13:00,
2013-04-01 04:18:00,40.4,35.3,25.51,NW,320,0.0,0.0,82,0.00,,,0.00,Wunderground v.1.15,2013-04-01 09:18:00,
2013-04-01 04:23:00,40.3,35.5,25.51,NW,319,0.0,0.0,83,0.00,,,0.00,Wunderground v.1.15,2013-04-01 09:23:00,
2013-04-01 04:28:00,40.2,35.4,25.51,NW,320,0.0,0.0,83,0.00,,,0.00,Wunderground v.1.15,2013-04-01 09:28:00,
2013-04-01 04:33:00,40.1,35.4,25.51,NW,320,0.0,0.0,83,0.00,,,0.00,Wunderground v.1.15,2013-04-01 09:33:00,
2013-04-01 04:38:00,39.9,35.2,25.51,NW,320,0.0,0.0,83,0.00,,,0.00,Wunderground v.1.15,2013-04-01 09:38:00,
2013-04-01 04:43:00,39.8,35.4,25.51,NW,319,0.0,0.0,84,0.00,,,0.00,Wunderground v.1.15,2013-04-01 09:43:00,
2013-04-01 04:48:00,39.7,35.3,25.51,NW,319,0.0,0.0,84,0.00,,,0.00,Wunderground v.1.15,2013-04-01 09:48:00,
2013-04-01 04:53:00,39.7,35.3,25.51,NW,320,0.0,0.0,84,0.00,,,0.00,Wunderground v.1.15,2013-04-01 09:53:00,
2013-04-01 04:58:00,39.6,35.2,25.51,NW,320,0.0,0.0,84,0.00,,,0.00,Wunderground v.1.15,2013-04-01 09:58:00,
2013-04-01 05:03:00,39.5,35.1,25.51,NW,320,0.0,0.0,84,0.00,,,0.00,Wunderground v.1.15,2013-04-01 10:03:00,
2013-04-01 05:08:00,39.5,35.1,25.51,NW,320,0.0,0.0,84,0.00,,,0.00,Wunderground v.1.15,2013-04-01 10:08:00,
2013-04-01 05:13:00,39.3,34.9,25.51,NW,319,0.0,0.0,84,0.00,,,0.00,Wunderground v.1.15,2013-04-01 10:13:00,
2013-04-01 05:18:00,39.3,35.2,25.51,NW,319,0.0,0.0,85,0.00,,,0.00,Wunderground v.1.15,2013-04-01 10:18:00,
2013-04-01 05:23:00,39.2,35.1,25.51,NW,319,0.0,0.0,85,0.00,,,0.00,Wunderground v.1.15,2013-04-01 10:23:00,
2013-04-01 05:28:00,39.1,35.0,25.51,NW,319,0.0,0.0,85,0.00,,,0.00,Wunderground v.1.15,2013-04-01 10:28:00,
2013-04-01 05:34:00,39.0,34.9,25.51,NW,320,0.0,0.0,85,0.00,,,0.00,Wunderground v.1.15,2013-04-01 10:34:00,
2013-04-01 05:39:00,38.9,34.8,25.51,NW,320,0.0,0.0,85,0.00,,,0.00,Wunderground v.1.15,2013-04-01 10:39:00,
2013-04-01 05:44:00,38.8,34.7,25.51,NW,319,0.0,0.0,85,0.00,,,0.00,Wunderground v.1.15,2013-04-01 10:44:00,
2013-04-01 05:49:00,38.7,34.6,25.51,NW,320,0.0,0.0,85,0.00,,,0.00,Wunderground v.1.15,2013-04-01 10:49:00,
2013-04-01 05:54:00,38.6,34.5,25.51,NW,320,0.0,0.0,85,0.00,,,0.00,Wunderground v.1.15,2013-04-01 10:54:00,
2013-04-01 05:59:00,38.5,34.4,25.51,NW,319,0.0,0.0,85,0.00,,,0.00,Wunderground v.1.15,2013-04-01 10:59:00,
2013-04-01 06:04:00,38.4,34.3,25.51,NW,319,0.0,0.0,85,0.00,,,0.00,Wunderground v.1.15,2013-04-01 11:04:00,
2013-04-01 06:09:00,38.3,34.2,25.51,NW,320,0.0,0.0,85,0.00,,,0.00,Wunderground v.1.15,2013-04-01 11:09:00,
2013-04-01 06:14:00,38.2,34.4,24.97,NW,320,0.0,0.0,86,0.00,,,0.00,Wunderground v.1.15,2013-04-01 11:14:00,
2013-04-01 06:19:00,38.1,34.3,24.97,NW,320,0.0,0.0,86,0.00,,,0.00,Wunderground v.1.15,2013-04-01 11:19:00,
2013-04-01 06:24:00,38.1,34.3,24.97,NW,320,0.0,0.0,86,0.00,,,0.00,Wunderground v.1.15,2013-04-01 11:24:00,
2013-04-01 06:29:00,38.0,34.2,24.97,NW,320,0.0,0.0,86,0.00,,,0.00,Wunderground v.1.15,2013-04-01 11:29:00,
2013-04-01 06:34:00,38.0,34.2,24.97,NW,320,0.0,0.0,86,0.00,,,0.00,Wunderground v.1.15,2013-04-01 11:34:00,
2013-04-01 06:39:00,37.9,34.1,24.97,NW,320,0.0,0.0,86,0.00,,,0.00,Wunderground v.1.15,2013-04-01 11:39:00,
2013-04-01 06:44:00,37.9,34.1,24.97,NW,320,0.0,0.0,86,0.00,,,0.00,Wunderground v.1.15,2013-04-01 11:44:00,
2013-04-01 06:49:00,37.9,34.1,24.97,NW,319,0.0,0.0,86,0.00,,,0.00,Wunderground v.1.15,2013-04-01 11:49:00,
2013-04-01 06:54:00,37.8,34.3,24.97,NW,320,0.0,0.0,87,0.00,,,0.00,Wunderground v.1.15,2013-04-01 11:54:00,
2013-04-01 06:59:00,37.8,34.3,24.97,NW,319,0.0,0.0,87,0.00,,,0.00,Wunderground v.1.15,2013-04-01 11:59:00,
2013-04-01 07:05:00,37.8,34.3,24.97,NW,319,0.0,0.0,87,0.00,,,0.00,Wunderground v.1.15,2013-04-01 12:05:00,
2013-04-01 07:10:00,37.8,34.3,24.97,NW,320,0.0,0.0,87,0.00,,,0.00,Wunderground v.1.15,2013-04-01 12:10:00,
2013-04-01 07:15:00,37.7,34.2,24.97,NW,320,0.0,0.0,87,0.00,,,0.00,Wunderground v.1.15,2013-04-01 12:15:00,
2013-04-01 07:20:00,37.7,34.2,24.97,NW,319,0.0,0.0,87,0.00,,,0.00,Wunderground v.1.15,2013-04-01 12:20:00,
2013-04-01 07:25:00,37.7,34.2,24.97,NW,320,0.0,0.0,87,0.00,,,0.00,Wunderground v.1.15,2013-04-01 12:25:00,
2013-04-01 07:30:00,37.7,34.2,25.47,NW,320,0.0,0.0,87,0.00,,,0.00,Wunderground v.1.15,2013-04-01 12:30:00,
2013-04-01 07:35:00,38.0,34.8,25.47,NNW,333,0.0,6.0,88,0.00,,,0.00,Wunderground v.1.15,2013-04-01 12:35:00,
2013-04-01 07:40:00,38.5,35.5,25.47,NNW,333,0.0,1.0,89,0.00,,,0.00,Wunderground v.1.15,2013-04-01 12:40:00,
2013-04-01 07:45:00,38.9,36.2,25.47,NNW,333,0.0,1.0,90,0.00,,,0.00,Wunderground v.1.15,2013-04-01 12:45:00,
2013-04-01 07:50:00,39.6,36.9,25.47,NNW,333,0.0,0.0,90,0.00,,,0.00,Wunderground v.1.15,2013-04-01 12:50:00,
2013-04-01 07:55:00,40.9,38.5,25.47,NNW,333,0.0,0.0,91,0.00,,,0.00,Wunderground v.1.15,2013-04-01 12:55:00,
2013-04-01 08:00:00,42.1,39.7,25.47,NNW,333,0.0,0.0,91,0.00,,,0.00,Wunderground v.1.15,2013-04-01 13:00:00,
2013-04-01 08:05:00,43.4,40.7,25.47,NNW,333,0.0,0.0,90,0.00,,,0.00,Wunderground v.1.15,2013-04-01 13:05:00,
2013-04-01 08:10:00,44.7,41.7,25.47,NNW,333,0.0,0.0,89,0.00,,,0.00,Wunderground v.1.15,2013-04-01 13:10:00,
2013-04-01 08:15:00,45.4,42.1,25.47,NNW,333,0.0,1.0,88,0.00,,,0.00,Wunderground v.1.15,2013-04-01 13:15:00,
2013-04-01 08:20:00,46.1,42.1,25.47,NNW,333,0.0,0.0,86,0.00,,,0.00,Wunderground v.1.15,2013-04-01 13:20:00,
2013-04-01 08:25:00,46.9,42.3,25.47,NNW,333,0.0,1.0,84,0.00,,,0.00,Wunderground v.1.15,2013-04-01 13:25:00,
2013-04-01 08:30:00,47.6,42.1,25.47,NNW,331,0.0,0.0,81,0.00,,,0.00,Wunderground v.1.15,2013-04-01 13:30:00,
2013-04-01 08:35:00,48.5,42.6,25.47,NNW,331,0.0,1.0,80,0.00,,,0.00,Wunderground v.1.15,2013-04-01 13:35:00,
2013-04-01 08:40:00,49.3,42.7,25.47,NNW,330,0.0,0.0,78,0.00,,,0.00,Wunderground v.1.15,2013-04-01 13:40:00,
2013-04-01 08:45:00,50.1,42.8,25.47,NNW,330,1.0,1.0,76,0.00,,,0.00,Wunderground v.1.15,2013-04-01 13:45:00,
2013-04-01 08:50:00,50.7,42.7,25.47,SE,138,2.0,3.0,74,0.00,,,0.00,Wunderground v.1.15,2013-04-01 13:50:00,
2013-04-01 08:55:00,50.8,42.5,25.47,NNW,334,0.0,3.0,73,0.00,,,0.00,Wunderground v.1.15,2013-04-01 13:55:00,
2013-04-01 09:00:00,51.1,42.4,25.47,WNW,283,0.0,0.0,72,0.00,,,0.00,Wunderground v.1.15,2013-04-01 14:00:00,
2013-04-01 09:05:00,51.7,42.6,25.47,NNW,341,0.0,1.0,71,0.00,,,0.00,Wunderground v.1.15,2013-04-01 14:05:00,
2013-04-01 09:10:00,52.3,42.0,25.47,ENE,61,0.0,1.0,68,0.00,,,0.00,Wunderground v.1.15,2013-04-01 14:10:00,
2013-04-01 09:16:00,52.9,42.2,23.60,NE,46,2.0,2.0,67,0.00,,,0.00,Wunderground v.1.15,2013-04-01 14:16:00,
2013-04-01 09:21:00,53.1,41.6,23.60,ENE,71,0.0,1.0,65,0.00,,,0.00,Wunderground v.1.15,2013-04-01 14:21:00,
2013-04-01 09:26:00,53.3,41.8,23.60,SE,136,0.0,3.0,65,0.00,,,0.00,Wunderground v.1.15,2013-04-01 14:26:00,
2013-04-01 09:32:00,53.4,41.5,23.60,NW,326,4.0,5.0,64,0.00,,,0.00,Wunderground v.1.15,2013-04-01 14:32:00,
2013-04-01 09:37:00,53.5,41.2,23.15,ESE,103,0.0,6.0,63,0.00,,,0.00,Wunderground v.1.15,2013-04-01 14:37:00,
2013-04-01 09:42:00,53.5,40.8,23.15,SE,138,1.0,5.0,62,0.00,,,0.00,Wunderground v.1.15,2013-04-01 14:42:00,
2013-04-01 09:47:00,53.6,40.9,23.15,NNW,346,0.0,5.0,62,0.00,,,0.00,Wunderground v.1.15,2013-04-01 14:47:00,
2013-04-01 09:52:00,53.9,40.8,23.15,ESE,108,0.0,9.0,61,0.00,,,0.00,Wunderground v.1.15,2013-04-01 14:52:00,
2013-04-01 09:57:00,54.6,41.4,23.15,NNE,29,1.0,9.0,61,0.00,,,0.00,Wunderground v.1.15,2013-04-01 14:57:00,
2013-04-01 10:02:00,54.9,41.3,23.15,NE,45,0.0,1.0,60,0.00,,,0.00,Wunderground v.1.15,2013-04-01 15:02:00,
2013-04-01 10:07:00,54.8,39.8,23.15,ENE,65,0.0,4.0,57,0.00,,,0.00,Wunderground v.1.15,2013-04-01 15:07:00,
2013-04-01 10:12:00,55.4,40.4,23.15,NNW,330,6.0,6.0,57,0.00,,,0.00,Wunderground v.1.15,2013-04-01 15:12:00,
2013-04-01 10:17:00,55.8,40.3,23.15,East,84,3.0,9.0,56,0.00,,,0.00,Wunderground v.1.15,2013-04-01 15:17:00,
2013-04-01 10:22:00,56.4,40.4,23.15,ENE,57,0.0,3.0,55,0.00,,,0.00,Wunderground v.1.15,2013-04-01 15:22:00,
2013-04-01 10:28:00,56.9,40.9,23.15,NW,318,1.0,4.0,55,0.00,,,0.00,Wunderground v.1.15,2013-04-01 15:28:00,
2013-04-01 10:33:00,57.6,40.6,23.15,SE,129,2.0,2.0,53,0.00,,,0.00,Wunderground v.1.15,2013-04-01 15:33:00,
2013-04-01 10:37:00,57.3,39.8,19.01,NNW,339,1.0,5.0,52,0.00,,,0.00,Wunderground v.1.15,2013-04-01 15:37:00,
2013-04-01 10:43:00,57.1,40.1,19.01,NW,325,2.0,2.0,53,0.00,,,0.00,Wunderground v.1.15,2013-04-01 15:43:00,
2013-04-01 10:48:00,58.1,40.6,19.01,ESE,118,2.0,4.0,52,0.00,,,0.00,Wunderground v.1.15,2013-04-01 15:48:00,
2013-04-01 10:53:00,57.4,39.9,19.01,North,5,0.0,9.0,52,0.00,,,0.00,Wunderground v.1.15,2013-04-01 15:53:00,
2013-04-01 10:58:00,58.6,41.0,19.01,SSE,153,0.0,9.0,52,0.00,,,0.00,Wunderground v.1.15,2013-04-01 15:58:00,
2013-04-01 11:03:00,59.0,40.4,19.01,South,175,2.0,7.0,50,0.00,,,0.00,Wunderground v.1.15,2013-04-01 16:03:00,
2013-04-01 11:08:00,58.3,40.2,19.01,NW,319,0.0,7.0,51,0.00,,,0.00,Wunderground v.1.15,2013-04-01 16:08:00,
2013-04-01 11:13:00,58.3,40.2,19.01,ESE,106,1.0,3.0,51,0.00,,,0.00,Wunderground v.1.15,2013-04-01 16:13:00,
2013-04-01 11:18:00,57.8,40.3,19.01,NNW,329,0.0,3.0,52,0.00,,,0.00,Wunderground v.1.15,2013-04-01 16:18:00,
2013-04-01 11:23:00,58.8,40.7,19.01,NE,41,2.0,4.0,51,0.00,,,0.00,Wunderground v.1.15,2013-04-01 16:23:00,
2013-04-01 11:28:00,58.9,40.8,19.01,NNW,334,1.0,4.0,51,0.00,,,0.00,Wunderground v.1.15,2013-04-01 16:28:00,
2013-04-01 11:33:00,59.6,41.4,19.01,WSW,240,0.0,2.0,51,0.00,,,0.00,Wunderground v.1.15,2013-04-01 16:33:00,
2013-04-01 11:38:00,60.5,40.7,19.01,East,97,0.0,4.0,48,0.00,,,0.00,Wunderground v.1.15,2013-04-01 16:38:00,
2013-04-01 11:43:00,60.1,40.9,19.01,ENE,60,0.0,3.0,49,0.00,,,0.00,Wunderground v.1.15,2013-04-01 16:43:00,
2013-04-01 11:48:00,60.0,40.8,19.01,ENE,61,0.0,3.0,49,0.00,,,0.00,Wunderground v.1.15,2013-04-01 16:48:00,
2013-04-01 11:53:00,60.0,40.8,19.01,NNW,329,1.0,3.0,49,0.00,,,0.00,Wunderground v.1.15,2013-04-01 16:53:00,
2013-04-01 11:58:00,60.8,42.0,19.01,NNW,340,0.0,6.0,50,0.00,,,0.00,Wunderground v.1.15,2013-04-01 16:58:00,
2013-04-01 12:03:00,61.8,40.8,19.01,North,355,0.0,2.0,46,0.00,,,0.00,Wunderground v.1.15,2013-04-01 17:03:00,
2013-04-01 12:08:00,61.6,41.7,19.01,SE,145,2.0,2.0,48,0.00,,,0.00,Wunderground v.1.15,2013-04-01 17:08:00,
2013-04-01 12:13:00,61.0,41.2,19.01,South,190,0.0,5.0,48,0.00,,,0.00,Wunderground v.1.15,2013-04-01 17:13:00,
2013-04-01 12:18:00,61.4,42.1,19.01,West,277,0.0,5.0,49,0.00,,,0.00,Wunderground v.1.15,2013-04-01 17:18:00,
2013-04-01 12:23:00,62.4,41.3,19.01,NNW,328,0.0,2.0,46,0.00,,,0.00,Wunderground v.1.15,2013-04-01 17:23:00,
2013-04-01 12:28:00,62.6,42.6,19.01,South,176,1.0,2.0,48,0.00,,,0.00,Wunderground v.1.15,2013-04-01 17:28:00,
2013-04-01 12:33:00,62.6,41.5,19.01,West,273,0.0,1.0,46,0.00,,,0.00,Wunderground v.1.15,2013-04-01 17:33:00,
2013-04-01 12:38:00,63.6,41.3,19.01,North,349,0.0,3.0,44,0.00,,,0.00,Wunderground v.1.15,2013-04-01 17:38:00,
2013-04-01 12:43:00,62.8,41.1,19.01,East,89,0.0,2.0,45,0.00,,,0.00,Wunderground v.1.15,2013-04-01 17:43:00,
2013-04-01 12:49:00,64.1,42.9,19.01,ESE,106,0.0,7.0,46,0.00,,,0.00,Wunderground v.1.15,2013-04-01 17:49:00,
2013-04-01 12:54:00,64.8,41.8,19.01,South,175,1.0,2.0,43,0.00,,,0.00,Wunderground v.1.15,2013-04-01 17:54:00,
2013-04-01 12:59:00,63.4,41.7,19.01,SE,128,2.0,4.0,45,0.00,,,0.00,Wunderground v.1.15,2013-04-01 17:59:00,
2013-04-01 13:04:00,62.6,41.5,19.01,ESE,115,0.0,3.0,46,0.00,,,0.00,Wunderground v.1.15,2013-04-01 18:04:00,
2013-04-01 13:09:00,64.1,42.9,19.01,NW,321,0.0,3.0,46,0.00,,,0.00,Wunderground v.1.15,2013-04-01 18:09:00,
2013-04-01 13:14:00,64.2,41.2,19.01,WSW,244,1.0,3.0,43,0.00,,,0.00,Wunderground v.1.15,2013-04-01 18:14:00,
2013-04-01 13:19:00,63.4,41.7,19.01,SSE,160,0.0,5.0,45,0.00,,,0.00,Wunderground v.1.15,2013-04-01 18:19:00,
2013-04-01 13:24:00,63.6,43.5,19.01,SE,129,1.0,4.0,48,0.00,,,0.00,Wunderground v.1.15,2013-04-01 18:24:00,
2013-04-01 13:29:00,63.9,42.7,19.01,ESE,104,0.0,4.0,46,0.00,,,0.00,Wunderground v.1.15,2013-04-01 18:29:00,
2013-04-01 13:34:00,64.7,42.3,19.01,NNW,329,0.0,3.0,44,0.00,,,0.00,Wunderground v.1.15,2013-04-01 18:34:00,
2013-04-01 13:39:00,65.1,43.2,19.01,North,10,1.0,3.0,45,0.00,,,0.00,Wunderground v.1.15,2013-04-01 18:39:00,
2013-04-01 13:44:00,64.8,42.9,19.01,NNE,21,0.0,4.0,45,0.00,,,0.00,Wunderground v.1.15,2013-04-01 18:44:00,
2013-04-01 13:49:00,65.1,42.6,19.01,SE,132,0.0,4.0,44,0.00,,,0.00,Wunderground v.1.15,2013-04-01 18:49:00,
2013-04-01 13:54:00,65.6,43.7,19.01,ESE,123,0.0,1.0,45,0.00,,,0.00,Wunderground v.1.15,2013-04-01 18:54:00,
2013-04-01 13:59:00,66.6,44.6,19.01,NNW,335,0.0,1.0,45,0.00,,,0.00,Wunderground v.1.15,2013-04-01 18:59:00,
2013-04-01 14:04:00,66.6,43.4,19.01,NE,44,1.0,4.0,43,0.00,,,0.00,Wunderground v.1.15,2013-04-01 19:04:00,
2013-04-01 14:09:00,67.1,43.8,19.01,NW,324,2.0,5.0,43,0.00,,,0.00,Wunderground v.1.15,2013-04-01 19:09:00,
2013-04-01 14:14:00,67.1,43.2,19.01,NNW,330,0.0,2.0,42,0.00,,,0.00,Wunderground v.1.15,2013-04-01 19:14:00,
2013-04-01 14:19:00,66.9,44.3,19.01,North,5,0.0,3.0,44,0.00,,,0.00,Wunderground v.1.15,2013-04-01 19:19:00,
2013-04-01 14:24:00,67.0,43.8,19.01,NNW,341,0.0,1.0,43,0.00,,,0.00,Wunderground v.1.15,2013-04-01 19:24:00,
2013-04-01 14:29:00,65.8,43.9,19.01,SSW,199,0.0,2.0,45,0.00,,,0.00,Wunderground v.1.15,2013-04-01 19:29:00,
2013-04-01 14:34:00,65.9,43.4,19.01,NNW,337,1.0,4.0,44,0.00,,,0.00,Wunderground v.1.15,2013-04-01 19:34:00,
2013-04-01 14:39:00,65.8,43.3,19.01,ESE,122,0.0,7.0,44,0.00,,,0.00,Wunderground v.1.15,2013-04-01 19:39:00,
2013-04-01 14:44:00,65.5,43.0,19.01,NNW,346,0.0,3.0,44,0.00,,,0.00,Wunderground v.1.15,2013-04-01 19:44:00,
2013-04-01 14:49:00,65.4,43.5,19.01,NW,326,0.0,5.0,45,0.00,,,0.00,Wunderground v.1.15,2013-04-01 19:49:00,
2013-04-01 14:54:00,64.7,44.0,19.01,NNW,340,0.0,4.0,47,0.00,,,0.00,Wunderground v.1.15,2013-04-01 19:54:00,
2013-04-01 14:59:00,65.1,43.8,25.33,NNW,329,0.0,4.0,46,0.00,,,0.00,Wunderground v.1.15,2013-04-01 19:59:00,
2013-04-01 15:04:00,65.2,43.3,25.33,NE,47,0.0,6.0,45,0.00,,,0.00,Wunderground v.1.15,2013-04-01 20:04:00,
2013-04-01 15:09:00,64.8,44.6,25.31,NNW,341,2.0,6.0,48,0.00,,,0.00,Wunderground v.1.15,2013-04-01 20:09:00,
2013-04-01 15:14:00,64.4,44.3,24.71,North,355,0.0,4.0,48,0.00,,,0.00,Wunderground v.1.15,2013-04-01 20:14:00,
2013-04-01 15:19:00,63.7,43.6,24.71,NNW,340,0.0,7.0,48,0.00,,,0.00,Wunderground v.1.15,2013-04-01 20:19:00,
2013-04-01 15:24:00,62.7,43.8,24.71,NNW,327,0.0,5.0,50,0.00,,,0.00,Wunderground v.1.15,2013-04-01 20:24:00,
2013-04-01 15:29:00,62.2,43.3,24.71,NNW,329,1.0,5.0,50,0.00,,,0.00,Wunderground v.1.15,2013-04-01 20:29:00,
2013-04-01 15:34:00,61.6,43.3,24.71,NE,36,0.0,6.0,51,0.00,,,0.00,Wunderground v.1.15,2013-04-01 20:34:00,
2013-04-01 15:39:00,61.1,43.3,24.71,NNW,338,0.0,6.0,52,0.00,,,0.00,Wunderground v.1.15,2013-04-01 20:39:00,
2013-04-01 15:44:00,60.6,42.9,24.71,NNW,335,0.0,4.0,52,0.00,,,0.00,Wunderground v.1.15,2013-04-01 20:44:00,
2013-04-01 15:49:00,60.2,43.0,24.71,North,351,2.0,4.0,53,0.00,,,0.00,Wunderground v.1.15,2013-04-01 20:49:00,
2013-04-01 15:54:00,59.5,42.3,24.71,North,355,0.0,1.0,53,0.00,,,0.00,Wunderground v.1.15,2013-04-01 20:54:00,
2013-04-01 15:59:00,58.9,42.3,24.71,North,355,4.0,6.0,54,0.00,,,0.00,Wunderground v.1.15,2013-04-01 20:59:00,
2013-04-01 16:04:00,57.6,41.5,24.71,NNW,336,3.0,8.0,55,0.00,,,0.00,Wunderground v.1.15,2013-04-01 21:04:00,
2013-04-01 16:09:00,56.8,41.7,24.71,NNW,341,0.0,8.0,57,0.00,,,0.00,Wunderground v.1.15,2013-04-01 21:09:00,
2013-04-01 16:14:00,56.2,42.1,24.71,NW,316,1.0,7.0,59,0.00,,,0.00,Wunderground v.1.15,2013-04-01 21:14:00,
2013-04-01 16:19:00,55.5,41.8,25.00,NNW,338,1.0,7.0,60,0.00,,,0.00,Wunderground v.1.15,2013-04-01 21:19:00,
2013-04-01 16:24:00,54.9,41.7,25.00,NNW,342,0.0,12.0,61,0.00,,,0.00,Wunderground v.1.15,2013-04-01 21:24:00,
2013-04-01 16:29:00,54.2,41.5,25.00,NNW,348,0.0,12.0,62,0.00,,,0.00,Wunderground v.1.15,2013-04-01 21:29:00,
2013-04-01 16:34:00,53.7,42.2,24.96,NNW,348,0.0,5.0,65,0.00,,,0.00,Wunderground v.1.15,2013-04-01 21:34:00,
2013-04-01 16:39:00,53.2,42.9,24.96,NW,311,0.0,5.0,68,0.00,,,0.00,Wunderground v.1.15,2013-04-01 21:39:00,
2013-04-01 16:44:00,52.6,43.1,24.96,North,355,0.0,9.0,70,0.00,,,0.01,Wunderground v.1.15,2013-04-01 21:44:00,
2013-04-01 16:49:00,52.2,43.4,24.96,NW,324,0.0,9.0,72,0.00,,,0.01,Wunderground v.1.15,2013-04-01 21:49:00,
2013-04-01 16:54:00,52.0,44.3,24.96,NW,323,0.0,1.0,75,0.00,,,0.01,Wunderground v.1.15,2013-04-01 21:54:00,
2013-04-01 16:59:00,51.8,44.5,24.96,NNW,329,0.0,6.0,76,0.00,,,0.01,Wunderground v.1.15,2013-04-01 21:59:00,
2013-04-01 17:04:00,51.7,44.7,24.96,NNW,332,0.0,5.0,77,0.00,,,0.01,Wunderground v.1.15,2013-04-01 22:04:00,
2013-04-01 17:09:00,51.5,44.5,24.96,NNW,333,1.0,5.0,77,0.00,,,0.01,Wunderground v.1.15,2013-04-01 22:09:00,
2013-04-01 17:14:00,51.4,44.1,24.96,NNW,336,0.0,2.0,76,0.00,,,0.01,Wunderground v.1.15,2013-04-01 22:14:00,
2013-04-01 17:19:00,51.2,43.9,24.96,NW,319,0.0,2.0,76,0.00,,,0.01,Wunderground v.1.15,2013-04-01 22:19:00,
2013-04-01 17:24:00,51.1,43.8,24.96,East,84,0.0,2.0,76,0.00,,,0.01,Wunderground v.1.15,2013-04-01 22:24:00,
2013-04-01 17:29:00,51.0,43.4,24.96,NE,42,1.0,4.0,75,0.00,,,0.01,Wunderground v.1.15,2013-04-01 22:29:00,
2013-04-01 17:35:00,50.8,43.2,24.96,NNW,329,0.0,4.0,75,0.00,,,0.01,Wunderground v.1.15,2013-04-01 22:35:00,
2013-04-01 17:40:00,50.6,43.0,24.96,NW,323,0.0,6.0,75,0.00,,,0.01,Wunderground v.1.15,2013-04-01 22:40:00,
2013-04-01 17:45:00,50.4,42.8,24.96,ENE,65,0.0,8.0,75,0.00,,,0.01,Wunderground v.1.15,2013-04-01 22:45:00,
2013-04-01 17:50:00,50.3,42.7,24.96,ENE,57,0.0,1.0,75,0.00,,,0.01,Wunderground v.1.15,2013-04-01 22:50:00,
2013-04-01 17:55:00,50.1,42.8,24.96,WNW,300,0.0,4.0,76,0.00,,,0.01,Wunderground v.1.15,2013-04-01 22:55:00,
2013-04-01 18:00:00,50.0,42.7,24.96,NNW,331,0.0,0.0,76,0.00,,,0.01,Wunderground v.1.15,2013-04-01 23:00:00,
2013-04-01 18:05:00,49.9,42.6,24.96,NNW,336,0.0,5.0,76,0.00,,,0.01,Wunderground v.1.15,2013-04-01 23:05:00,
2013-04-01 18:10:00,49.7,42.4,24.96,NW,319,0.0,0.0,76,0.00,,,0.01,Wunderground v.1.15,2013-04-01 23:10:00,
2013-04-01 18:15:00,49.5,42.2,24.96,NNW,331,0.0,2.0,76,0.00,,,0.01,Wunderground v.1.15,2013-04-01 23:15:00,
2013-04-01 18:20:00,49.4,42.1,24.96,SE,129,0.0,0.0,76,0.00,,,0.01,Wunderground v.1.15,2013-04-01 23:20:00,
2013-04-01 18:25:00,49.3,42.4,24.96,NNW,336,0.0,4.0,77,0.00,,,0.01,Wunderground v.1.15,2013-04-01 23:25:00,
2013-04-01 18:30:00,49.2,42.3,24.96,SSE,154,0.0,0.0,77,0.00,,,0.01,Wunderground v.1.15,2013-04-01 23:30:00,
2013-04-01 18:35:00,49.2,42.3,24.96,ENE,63,0.0,5.0,77,0.00,,,0.01,Wunderground v.1.15,2013-04-01 23:35:00,
2013-04-01 18:40:00,49.2,42.3,24.96,East,95,0.0,0.0,77,0.00,,,0.01,Wunderground v.1.15,2013-04-01 23:40:00,
2013-04-01 18:45:00,49.0,42.1,24.96,NE,36,0.0,4.0,77,0.00,,,0.01,Wunderground v.1.15,2013-04-01 23:45:00,
2013-04-01 18:50:00,49.0,42.1,24.96,SE,146,0.0,0.0,77,0.00,,,0.01,Wunderground v.1.15,2013-04-01 23:50:00,
2013-04-01 18:55:00,48.8,41.9,24.96,NW,323,0.0,4.0,77,0.00,,,0.01,Wunderground v.1.15,2013-04-01 23:55:00,
2013-04-01 19:00:00,48.8,41.9,24.96,ENE,64,0.0,0.0,77,0.00,,,0.01,Wunderground v.1.15,2013-04-02 00:00:00,
2013-04-01 19:05:00,48.7,41.5,24.96,SSE,148,0.0,3.0,76,0.00,,,0.01,Wunderground v.1.15,2013-04-02 00:05:00,
2013-04-01 19:10:00,48.6,41.4,24.96,NE,37,0.0,0.0,76,0.00,,,0.01,Wunderground v.1.15,2013-04-02 00:10:00,
2013-04-01 19:15:00,48.6,41.7,25.72,NW,325,3.0,3.0,77,0.00,,,0.01,Wunderground v.1.15,2013-04-02 00:15:00,
2013-04-01 19:20:00,48.5,41.6,25.72,NW,323,1.0,1.0,77,0.00,,,0.01,Wunderground v.1.15,2013-04-02 00:20:00,
2013-04-01 19:25:00,48.4,41.2,24.99,NNW,328,0.0,4.0,76,0.00,,,0.01,Wunderground v.1.15,2013-04-02 00:25:00,
2013-04-01 19:30:00,48.3,41.1,24.99,NNW,327,0.0,0.0,76,0.00,,,0.01,Wunderground v.1.15,2013-04-02 00:30:00,
2013-04-01 19:35:00,48.2,41.0,24.99,NNW,328,0.0,1.0,76,0.00,,,0.01,Wunderground v.1.15,2013-04-02 00:35:00,
2013-04-01 19:40:00,48.1,41.2,24.99,ENE,65,0.0,0.0,77,0.00,,,0.01,Wunderground v.1.15,2013-04-02 00:40:00,
2013-04-01 19:45:00,47.9,40.7,24.99,SE,134,0.0,5.0,76,0.00,,,0.01,Wunderground v.1.15,2013-04-02 00:45:00,
2013-04-01 19:50:00,47.8,40.6,24.99,NNE,22,0.0,1.0,76,0.00,,,0.01,Wunderground v.1.15,2013-04-02 00:50:00,
2013-04-01 19:55:00,47.7,40.5,24.99,SE,129,5.0,5.0,76,0.00,,,0.01,Wunderground v.1.15,2013-04-02 00:55:00,
2013-04-01 20:00:00,47.6,40.7,24.99,NNW,331,0.0,0.0,77,0.00,,,0.01,Wunderground v.1.15,2013-04-02 01:00:00,
2013-04-01 20:05:00,47.4,40.2,24.99,North,10,0.0,3.0,76,0.00,,,0.01,Wunderground v.1.15,2013-04-02 01:05:00,
2013-04-01 20:10:00,47.3,40.5,24.99,SSE,153,0.0,1.0,77,0.00,,,0.01,Wunderground v.1.15,2013-04-02 01:10:00,
2013-04-01 20:15:00,47.2,40.4,24.99,NNW,348,0.0,3.0,77,0.00,,,0.01,Wunderground v.1.15,2013-04-02 01:15:00,
2013-04-01 20:20:00,47.1,39.9,24.99,NNW,348,0.0,0.0,76,0.00,,,0.01,Wunderground v.1.15,2013-04-02 01:20:00,
2013-04-01 20:25:00,47.0,39.8,24.99,NNW,331,0.0,5.0,76,0.00,,,0.01,Wunderground v.1.15,2013-04-02 01:25:00,
2013-04-01 20:30:00,46.9,39.7,24.99,NNW,330,0.0,0.0,76,0.00,,,0.01,Wunderground v.1.15,2013-04-02 01:30:00,
2013-04-01 20:35:00,46.9,39.7,24.99,NNW,331,0.0,1.0,76,0.00,,,0.01,Wunderground v.1.15,2013-04-02 01:35:00,
2013-04-01 20:40:00,46.8,39.6,24.99,ESE,109,0.0,2.0,76,0.00,,,0.01,Wunderground v.1.15,2013-04-02 01:40:00,
2013-04-01 20:45:00,46.7,39.5,24.99,ESE,109,0.0,2.0,76,0.00,,,0.01,Wunderground v.1.15,2013-04-02 01:45:00,
2013-04-01 20:50:00,46.7,39.2,24.99,ESE,109,0.0,0.0,75,0.00,,,0.01,Wunderground v.1.15,2013-04-02 01:50:00,
2013-04-01 20:55:00,46.6,39.1,24.99,North,9,0.0,2.0,75,0.00,,,0.01,Wunderground v.1.15,2013-04-02 01:55:00,
2013-04-01 21:00:00,46.5,38.7,24.99,NNW,327,0.0,2.0,74,0.00,,,0.01,Wunderground v.1.15,2013-04-02 02:00:00,
2013-04-01 21:05:00,46.5,38.7,24.99,NNW,329,0.0,4.0,74,0.00,,,0.01,Wunderground v.1.15,2013-04-02 02:05:00,
2013-04-01 21:10:00,46.5,38.7,24.99,North,360,0.0,0.0,74,0.00,,,0.01,Wunderground v.1.15,2013-04-02 02:10:00,
2013-04-01 21:15:00,46.5,38.7,24.99,North,360,0.0,1.0,74,0.00,,,0.01,Wunderground v.1.15,2013-04-02 02:15:00,
2013-04-01 21:20:00,46.5,38.7,24.99,NW,306,0.0,0.0,74,0.00,,,0.01,Wunderground v.1.15,2013-04-02 02:20:00,
2013-04-01 21:25:00,46.5,38.7,24.99,SE,145,0.0,2.0,74,0.00,,,0.01,Wunderground v.1.15,2013-04-02 02:25:00,
2013-04-01 21:30:00,46.5,39.0,24.99,SE,136,0.0,0.0,75,0.00,,,0.01,Wunderground v.1.15,2013-04-02 02:30:00,
2013-04-01 21:35:00,46.3,38.8,24.99,East,90,0.0,3.0,75,0.00,,,0.01,Wunderground v.1.15,2013-04-02 02:35:00,
2013-04-01 21:40:00,46.2,38.4,24.99,NE,45,0.0,0.0,74,0.00,,,0.01,Wunderground v.1.15,2013-04-02 02:40:00,
2013-04-01 21:45:00,46.1,38.3,24.99,SSW,192,0.0,2.0,74,0.00,,,0.01,Wunderground v.1.15,2013-04-02 02:45:00,
2013-04-01 21:50:00,45.9,38.1,24.99,NNW,338,0.0,1.0,74,0.00,,,0.01,Wunderground v.1.15,2013-04-02 02:50:00,
2013-04-01 21:55:00,45.8,37.6,24.99,ENE,74,0.0,1.0,73,0.00,,,0.01,Wunderground v.1.15,2013-04-02 02:55:00,
2013-04-01 22:00:00,45.6,37.4,24.99,East,90,0.0,1.0,73,0.00,,,0.01,Wunderground v.1.15,2013-04-02 03:00:00,
2013-04-01 22:05:00,45.4,37.2,24.99,NNW,336,0.0,1.0,73,0.00,,,0.01,Wunderground v.1.15,2013-04-02 03:05:00,
2013-04-01 22:11:00,45.3,37.2,24.99,NW,323,0.0,0.0,73,0.00,,,0.01,Wunderground v.1.15,2013-04-02 03:11:00,
2013-04-01 22:16:00,45.1,36.6,24.99,ESE,106,0.0,3.0,72,0.00,,,0.01,Wunderground v.1.15,2013-04-02 03:16:00,
2013-04-01 22:21:00,45.0,36.5,24.99,NNE,25,0.0,0.0,72,0.00,,,0.01,Wunderground v.1.15,2013-04-02 03:21:00,
2013-04-01 22:27:00,45.0,36.5,24.99,North,9,0.0,2.0,72,0.00,,,0.01,Wunderground v.1.15,2013-04-02 03:27:00,
2013-04-01 22:32:00,44.9,36.1,24.99,SSE,159,0.0,0.0,71,0.00,,,0.01,Wunderground v.1.15,2013-04-02 03:32:00,
2013-04-01 22:37:00,44.7,35.5,24.99,SE,129,0.0,2.0,70,0.00,,,0.01,Wunderground v.1.15,2013-04-02 03:37:00,
2013-04-01 22:42:00,44.5,35.3,24.99,NNW,341,2.0,3.0,70,0.00,,,0.01,Wunderground v.1.15,2013-04-02 03:42:00,
2013-04-01 22:47:00,44.5,35.0,24.99,NW,315,0.0,3.0,69,0.00,,,0.01,Wunderground v.1.15,2013-04-02 03:47:00,
2013-04-01 22:52:00,44.4,34.9,24.99,NW,320,0.0,2.0,69,0.00,,,0.01,Wunderground v.1.15,2013-04-02 03:52:00,
2013-04-01 22:57:00,44.3,34.8,26.65,NW,320,0.0,2.0,69,0.00,,,0.01,Wunderground v.1.15,2013-04-02 03:57:00,
2013-04-01 23:00:00,44.3,34.8,26.65,NW,319,0.0,2.0,69,0.00,,,0.01,Wunderground v.1.15,2013-04-02 04:00:00,
2013-04-01 23:05:00,44.2,34.3,26.65,NW,320,0.0,1.0,68,0.00,,,0.01,Wunderground v.1.15,2013-04-02 04:05:00,
2013-04-01 23:10:00,44.1,34.2,26.65,ESE,109,0.0,0.0,68,0.00,,,0.01,Wunderground v.1.15,2013-04-02 04:10:00,
2013-04-01 23:15:00,44.0,33.7,26.65,NW,316,0.0,2.0,67,0.00,,,0.01,Wunderground v.1.15,2013-04-02 04:15:00,
2013-04-01 23:20:00,43.9,33.6,26.65,SE,140,0.0,0.0,67,0.00,,,0.01,Wunderground v.1.15,2013-04-02 04:20:00,
2013-04-01 23:25:00,43.8,33.6,26.11,ENE,67,0.0,2.0,67,0.00,,,0.01,Wunderground v.1.15,2013-04-02 04:25:00,
2013-04-01 23:30:00,43.8,33.6,26.11,NNW,327,0.0,3.0,67,0.00,,,0.01,Wunderground v.1.15,2013-04-02 04:30:00,
2013-04-01 23:35:00,43.7,33.5,26.11,SE,132,0.0,3.0,67,0.00,,,0.01,Wunderground v.1.15,2013-04-02 04:35:00,
2013-04-01 23:40:00,43.6,33.4,26.11,ESE,110,0.0,0.0,67,0.00,,,0.01,Wunderground v.1.15,2013-04-02 04:40:00,
2013-04-01 23:45:00,43.6,33.4,26.11,ESE,110,0.0,1.0,67,0.00,,,0.01,Wunderground v.1.15,2013-04-02 04:45:00,
2013-04-01 23:50:00,43.5,33.3,26.11,NW,326,0.0,0.0,67,0.00,,,0.01,Wunderground v.1.15,2013-04-02 04:50:00,
2013-04-01 23:55:00,43.5,33.3,26.11,NW,326,0.0,2.0,67,0.00,,,0.01,Wunderground v.1.15,2013-04-02 04:55:00,